Location: Unspecified
(0.0000°N, 0.0000°E)
Time: 15:01:20
(UTC+00:00)

deb Briz - Pass Details

Date: 15 February 2026
Orbit: 1589 x 2054 km, 64.9° (Epoch: 5 March)

Event Time Altitude Azimuth Distance (km) Brightness Sun altitude
Rises 05:03:40 0° 197° (SSW) 5,277 ? -17.2°
Reaches altitude 10° 05:07:03 10° 194° (SSW) 4,219 ? -16.3°
Maximum altitude 05:17:37 72° 111° (ESE) 1,806 ? -13.8°
Drops below altitude 10° 05:27:15 10° 28° (NNE) 3,871 ? -11.4°
Sets 05:30:12 0° 27° (NNE) 4,822 ? -10.7°
